OCN2RD BIKF-EDDM

Flight info

Callsign OCN2RD
Flight time N/A
Altitude 35000
Route OSKUM3A OSKUM DCT RATSU/N0456F350 DCT BARKU DCT SMOKI DCT UPNAL DCT ROLUM DCT TOPPA DCT AMGOD DCT PETIK P62 PAM DCT OTMEC DCT MISGO DCT DOJOH DCT DODEN/N0459F330 DCT TABUM DCT BOMBI T104 HAREM/N0448F270 T104 ROKIL ROKIL1A
Aircraft A320/M-SDE3FGHIRWY/LB1

Departure

Time N/A
Airport Keflavik International Airport (BIKF)

Arrival

Time 2026-05-01 12:44
Airport Munich Airport (EDDM)
Time Latitude Longitude Altitude Speed Heading
2026-05-01 10:45 58.20297 -3.50576 35121 ft 453 kts 136°
2026-05-01 10:46 58.18214 -3.46059 35124 ft 453 kts 136°
2026-05-01 10:46 58.14061 -3.37089 35110 ft 453 kts 136°
2026-05-01 10:47 58.09905 -3.28138 35124 ft 453 kts 136°
2026-05-01 10:47 58.05742 -3.19210 35128 ft 452 kts 136°
2026-05-01 10:48 58.01577 -3.10308 35124 ft 452 kts 136°
2026-05-01 10:48 57.97410 -3.01418 35117 ft 452 kts 136°
2026-05-01 10:49 57.93257 -2.92604 35114 ft 452 kts 136°
2026-05-01 10:49 57.89074 -2.83757 35094 ft 452 kts 135°
2026-05-01 10:50 57.84883 -2.74932 35109 ft 452 kts 135°
2026-05-01 10:50 57.80691 -2.66127 35118 ft 452 kts 136°
2026-05-01 10:51 57.76506 -2.57335 35115 ft 452 kts 134°
2026-05-01 10:51 57.72549 -2.48145 35117 ft 454 kts 131°
2026-05-01 10:52 57.68707 -2.38768 35114 ft 454 kts 131°
2026-05-01 10:52 57.65485 -2.31046 35116 ft 453 kts 132°
2026-05-01 10:53 57.60909 -2.20369 35103 ft 452 kts 133°
2026-05-01 10:53 57.57595 -2.12733 35126 ft 452 kts 133°
2026-05-01 10:54 57.53651 -2.03623 35130 ft 452 kts 133°
2026-05-01 10:54 57.49739 -1.94564 35132 ft 452 kts 133°
2026-05-01 10:55 57.45795 -1.85475 35141 ft 452 kts 133°
2026-05-01 10:55 57.41841 -1.76427 35134 ft 451 kts 133°
2026-05-01 10:56 57.37885 -1.67393 35140 ft 451 kts 133°
2026-05-01 10:56 57.33930 -1.58390 35147 ft 450 kts 133°
2026-05-01 10:57 57.29974 -1.49425 35155 ft 449 kts 133°
2026-05-01 10:57 57.26014 -1.40496 35166 ft 449 kts 133°
2026-05-01 10:58 57.22049 -1.31595 35166 ft 448 kts 133°
2026-05-01 10:58 57.18084 -1.22710 35163 ft 448 kts 133°
2026-05-01 10:59 57.14118 -1.13854 35161 ft 448 kts 134°
2026-05-01 10:59 57.10287 -1.05337 35140 ft 448 kts 134°
2026-05-01 11:00 57.06308 -0.96527 35151 ft 448 kts 134°
2026-05-01 11:00 57.02323 -0.87730 35174 ft 448 kts 134°
2026-05-01 11:01 56.98333 -0.78956 35172 ft 448 kts 134°
2026-05-01 11:01 56.94340 -0.70199 35182 ft 448 kts 134°
2026-05-01 11:02 56.90342 -0.61460 35177 ft 448 kts 134°
2026-05-01 11:02 56.86333 -0.52750 35175 ft 447 kts 134°
2026-05-01 11:03 56.82322 -0.44067 35172 ft 447 kts 134°
2026-05-01 11:03 56.78310 -0.35402 35180 ft 447 kts 134°
2026-05-01 11:04 56.74295 -0.26762 35183 ft 446 kts 134°
2026-05-01 11:04 56.70281 -0.18138 35189 ft 446 kts 134°
2026-05-01 11:05 56.66262 -0.09553 35188 ft 446 kts 134°
2026-05-01 11:05 56.62229 -0.00997 35182 ft 446 kts 135°
2026-05-01 11:06 56.58198 0.07553 35183 ft 445 kts 135°
2026-05-01 11:06 56.54176 0.16072 35182 ft 444 kts 135°
2026-05-01 11:07 56.48130 0.28779 35201 ft 443 kts 135°
2026-05-01 11:07 56.44096 0.37235 35202 ft 443 kts 135°
2026-05-01 11:08 56.40066 0.45660 35204 ft 443 kts 135°
2026-05-01 11:09 56.34035 0.58194 35194 ft 443 kts 135°
2026-05-01 11:09 56.29990 0.66566 35190 ft 442 kts 135°
2026-05-01 11:10 56.23912 0.79060 35204 ft 442 kts 136°
2026-05-01 11:10 56.19869 0.87360 35203 ft 441 kts 136°
2026-05-01 11:11 56.15817 0.95651 35210 ft 441 kts 136°
2026-05-01 11:11 56.11761 1.03904 35211 ft 441 kts 136°
2026-05-01 11:12 56.07698 1.12143 35216 ft 441 kts 136°
2026-05-01 11:12 56.03666 1.20309 35205 ft 441 kts 136°
2026-05-01 11:13 55.99589 1.28512 35211 ft 441 kts 136°
2026-05-01 11:13 55.95508 1.36699 35220 ft 441 kts 136°
2026-05-01 11:14 55.91425 1.44872 35227 ft 441 kts 136°
2026-05-01 11:14 55.87339 1.53031 35218 ft 441 kts 136°
2026-05-01 11:15 55.83243 1.61189 35236 ft 441 kts 136°
2026-05-01 11:15 55.79145 1.69314 35219 ft 441 kts 136°
2026-05-01 11:16 55.75041 1.77409 35213 ft 441 kts 136°
2026-05-01 11:16 55.70936 1.85494 35230 ft 441 kts 136°
2026-05-01 11:17 55.66822 1.93570 35242 ft 441 kts 136°
2026-05-01 11:17 55.62727 2.01563 35249 ft 441 kts 136°
2026-05-01 11:18 55.58604 2.09584 35246 ft 441 kts 136°
2026-05-01 11:18 55.54451 2.17644 35250 ft 440 kts 136°
2026-05-01 11:19 55.50354 2.25584 35241 ft 441 kts 136°
2026-05-01 11:19 55.46215 2.33569 35239 ft 441 kts 136°
2026-05-01 11:20 55.41807 2.40993 35246 ft 436 kts 148°
2026-05-01 11:20 55.36532 2.46031 35253 ft 431 kts 158°
2026-05-01 11:21 55.31095 2.50488 35255 ft 431 kts 158°
2026-05-01 11:21 55.25659 2.54955 35256 ft 432 kts 158°
2026-05-01 11:22 55.20216 2.59420 35250 ft 432 kts 158°
2026-05-01 11:22 55.14769 2.63870 35259 ft 432 kts 158°
2026-05-01 11:23 55.09319 2.68287 35264 ft 432 kts 158°
2026-05-01 11:23 55.03871 2.72696 35265 ft 432 kts 158°
2026-05-01 11:24 54.98419 2.77103 35257 ft 432 kts 158°
2026-05-01 11:25 54.90235 2.83700 35260 ft 433 kts 158°
2026-05-01 11:25 54.82069 2.90244 35267 ft 433 kts 158°
2026-05-01 11:26 54.73858 2.96806 35268 ft 433 kts 158°
2026-05-01 11:27 54.68380 3.01155 35259 ft 433 kts 157°
2026-05-01 11:27 54.62898 3.05497 35273 ft 433 kts 157°
2026-05-01 11:28 54.57416 3.09826 35277 ft 433 kts 157°
2026-05-01 11:28 54.51938 3.14148 35278 ft 433 kts 158°
2026-05-01 11:29 54.43718 3.20590 35275 ft 433 kts 157°
2026-05-01 11:30 54.35514 3.27010 35271 ft 434 kts 157°
2026-05-01 11:30 54.29930 3.30883 35272 ft 432 kts 167°
2026-05-01 11:31 54.24028 3.32741 35276 ft 431 kts 172°
2026-05-01 11:31 54.18108 3.34407 35270 ft 432 kts 172°
2026-05-01 11:32 54.12175 3.36088 35271 ft 432 kts 172°
2026-05-01 11:32 54.06243 3.37781 35277 ft 432 kts 172°
2026-05-01 11:33 54.00309 3.39458 35276 ft 432 kts 172°
2026-05-01 11:33 53.94371 3.41131 35272 ft 432 kts 171°
2026-05-01 11:34 53.88468 3.42788 35271 ft 433 kts 172°
2026-05-01 11:34 53.82525 3.44454 35272 ft 433 kts 172°
2026-05-01 11:35 53.76580 3.46107 35273 ft 433 kts 172°
2026-05-01 11:35 53.70629 3.47764 35274 ft 433 kts 172°
2026-05-01 11:36 53.64678 3.49422 35268 ft 433 kts 172°
2026-05-01 11:36 53.58722 3.51066 35269 ft 434 kts 172°
2026-05-01 11:37 53.52764 3.52703 35274 ft 434 kts 172°
2026-05-01 11:37 53.46804 3.54344 35271 ft 434 kts 172°
2026-05-01 11:38 53.40843 3.55985 35272 ft 434 kts 172°
2026-05-01 11:38 53.34885 3.57670 35273 ft 434 kts 171°
2026-05-01 11:39 53.28975 3.59411 35260 ft 434 kts 171°
2026-05-01 11:39 53.23020 3.61169 35260 ft 435 kts 171°
2026-05-01 11:40 53.17046 3.62917 35258 ft 436 kts 171°
2026-05-01 11:40 53.11068 3.64651 35260 ft 436 kts 171°
2026-05-01 11:41 53.06096 3.66084 35267 ft 437 kts 171°
2026-05-01 11:41 53.00150 3.68118 35269 ft 437 kts 162°
2026-05-01 11:42 52.94761 3.72781 35256 ft 440 kts 143°
2026-05-01 11:42 52.90154 3.79501 35258 ft 441 kts 139°
2026-05-01 11:43 52.85581 3.86276 35266 ft 442 kts 140°
2026-05-01 11:43 52.80991 3.93041 35267 ft 442 kts 140°
2026-05-01 11:44 52.74095 4.03150 35263 ft 442 kts 140°
2026-05-01 11:44 52.69494 4.09884 35264 ft 442 kts 140°
2026-05-01 11:45 52.64889 4.16619 35264 ft 443 kts 140°
2026-05-01 11:45 52.60791 4.24157 35270 ft 445 kts 123°
2026-05-01 11:46 52.57882 4.33076 35262 ft 446 kts 119°
2026-05-01 11:46 52.55027 4.42128 35270 ft 446 kts 119°
2026-05-01 11:47 52.52151 4.51174 35268 ft 446 kts 119°
2026-05-01 11:47 52.49275 4.60200 35269 ft 446 kts 119°
2026-05-01 11:48 52.46391 4.69234 35259 ft 447 kts 119°
2026-05-01 11:48 52.43499 4.78248 35258 ft 446 kts 119°
2026-05-01 11:49 52.40606 4.87253 35259 ft 446 kts 119°
2026-05-01 11:49 52.37698 4.96243 35257 ft 446 kts 118°
2026-05-01 11:50 52.34783 5.05204 35268 ft 446 kts 119°
2026-05-01 11:50 52.31841 5.14059 35270 ft 446 kts 121°
2026-05-01 11:51 52.28704 5.22788 35284 ft 446 kts 123°
2026-05-01 11:51 52.25489 5.31520 35282 ft 445 kts 123°
2026-05-01 11:52 52.22347 5.40148 35287 ft 445 kts 122°
2026-05-01 11:52 52.19199 5.48862 35276 ft 446 kts 121°
2026-05-01 11:53 52.16035 5.57585 35280 ft 447 kts 122°
2026-05-01 11:53 52.12855 5.66305 35285 ft 448 kts 122°
2026-05-01 11:54 52.09665 5.75011 35286 ft 448 kts 121°
2026-05-01 11:54 52.06277 5.83489 35284 ft 447 kts 130°
2026-05-01 11:55 52.01939 5.90692 35282 ft 446 kts 136°
2026-05-01 11:55 51.97517 5.97792 35276 ft 448 kts 136°
2026-05-01 11:56 51.93085 6.04894 35283 ft 448 kts 135°
2026-05-01 11:56 51.88639 6.11988 35294 ft 449 kts 136°
2026-05-01 11:57 51.84182 6.19076 35298 ft 449 kts 136°
2026-05-01 11:57 51.79726 6.26155 35303 ft 449 kts 136°
2026-05-01 11:58 51.75268 6.33227 35310 ft 450 kts 136°
2026-05-01 11:59 51.68548 6.43820 35297 ft 451 kts 136°
2026-05-01 11:59 51.64055 6.50874 35300 ft 451 kts 136°
2026-05-01 12:00 51.57334 6.61404 35290 ft 451 kts 136°
2026-05-01 12:01 51.50570 6.71942 35291 ft 452 kts 136°
2026-05-01 12:01 51.46051 6.78955 35284 ft 453 kts 136°
2026-05-01 12:02 51.41510 6.85967 35279 ft 454 kts 136°
2026-05-01 12:02 51.36964 6.93003 35292 ft 454 kts 136°
2026-05-01 12:03 51.32434 7.00054 35311 ft 455 kts 136°
2026-05-01 12:03 51.27898 7.07099 35313 ft 455 kts 136°
2026-05-01 12:04 51.23357 7.14122 35315 ft 455 kts 136°
2026-05-01 12:04 51.18805 7.21133 35306 ft 456 kts 136°
2026-05-01 12:05 51.14232 7.28145 35314 ft 456 kts 136°
2026-05-01 12:05 51.07365 7.38647 35315 ft 457 kts 136°
2026-05-01 12:06 51.02777 7.45638 35314 ft 457 kts 136°
2026-05-01 12:06 50.98179 7.52620 35331 ft 457 kts 136°
2026-05-01 12:07 50.93578 7.59585 35337 ft 457 kts 136°
2026-05-01 12:07 50.88973 7.66540 35334 ft 457 kts 136°
2026-05-01 12:08 50.84358 7.73483 35336 ft 458 kts 136°
2026-05-01 12:08 50.79724 7.80423 35334 ft 459 kts 136°
2026-05-01 12:09 50.75069 7.87335 35349 ft 459 kts 136°
2026-05-01 12:09 50.70418 7.94240 35349 ft 459 kts 136°
2026-05-01 12:10 50.63441 8.04583 35345 ft 460 kts 136°
2026-05-01 12:11 50.55845 8.13751 35332 ft 461 kts 147°
2026-05-01 12:11 50.50466 8.19146 35334 ft 462 kts 147°
2026-05-01 12:12 50.45043 8.24582 35336 ft 463 kts 147°
2026-05-01 12:12 50.39612 8.30026 35335 ft 463 kts 147°
2026-05-01 12:13 50.34165 8.35455 35341 ft 464 kts 147°
2026-05-01 12:13 50.28865 8.41189 35343 ft 463 kts 137°
2026-05-01 12:14 50.24434 8.48431 35351 ft 461 kts 131°
2026-05-01 12:14 50.20079 8.55808 35359 ft 461 kts 132°
2026-05-01 12:15 50.15723 8.63149 35348 ft 461 kts 132°
2026-05-01 12:15 50.11355 8.70501 35341 ft 462 kts 131°
2026-05-01 12:16 50.06978 8.77838 35348 ft 462 kts 132°
2026-05-01 12:16 50.02462 8.84945 35357 ft 462 kts 136°
2026-05-01 12:17 49.97686 8.91583 35355 ft 462 kts 138°
2026-05-01 12:17 49.92898 8.98092 35352 ft 462 kts 137°
2026-05-01 12:18 49.88083 9.04797 35332 ft 462 kts 136°
2026-05-01 12:18 49.83355 9.11463 35346 ft 462 kts 136°
2026-05-01 12:19 49.78591 9.18161 35343 ft 463 kts 136°
2026-05-01 12:19 49.73818 9.24825 35356 ft 462 kts 136°
2026-05-01 12:20 49.69915 9.30238 35345 ft 462 kts 136°
2026-05-01 12:20 49.65134 9.36884 35338 ft 462 kts 136°
2026-05-01 12:21 49.60518 9.43776 35343 ft 461 kts 129°
2026-05-01 12:21 49.56289 9.51219 35355 ft 461 kts 129°
2026-05-01 12:22 49.52773 9.57382 35372 ft 461 kts 129°
2026-05-01 12:22 49.47821 9.66031 35373 ft 461 kts 129°
2026-05-01 12:23 49.43576 9.73429 35376 ft 461 kts 130°
2026-05-01 12:23 49.39328 9.80802 35386 ft 461 kts 130°
2026-05-01 12:24 49.35098 9.88113 35397 ft 460 kts 130°
2026-05-01 12:24 49.30845 9.95439 35387 ft 460 kts 129°
2026-05-01 12:25 49.24457 10.06413 35364 ft 459 kts 130°
2026-05-01 12:25 49.22342 10.10036 34486 ft 456 kts 130°
2026-05-01 12:26 49.20226 10.13657 33223 ft 456 kts 130°
2026-05-01 12:26 49.16072 10.20745 31376 ft 440 kts 129°
2026-05-01 12:26 49.14045 10.24198 30483 ft 434 kts 130°
2026-05-01 12:27 49.12701 10.26453 29715 ft 433 kts 130°
2026-05-01 12:27 49.07803 10.34369 27264 ft 445 kts 132°
2026-05-01 12:28 49.04196 10.40097 25303 ft 456 kts 131°
2026-05-01 12:28 49.01986 10.43605 24156 ft 461 kts 131°
2026-05-01 12:28 48.97552 10.50667 22237 ft 457 kts 131°
2026-05-01 12:29 48.95364 10.54150 21380 ft 453 kts 131°
2026-05-01 12:29 48.93201 10.57594 20557 ft 448 kts 132°
2026-05-01 12:29 48.89056 10.64190 18995 ft 412 kts 131°
2026-05-01 12:30 48.85218 10.70280 17524 ft 394 kts 131°
2026-05-01 12:30 48.83363 10.73222 16850 ft 393 kts 131°
2026-05-01 12:30 48.81473 10.76207 16184 ft 391 kts 131°
2026-05-01 12:31 48.79593 10.79172 15540 ft 390 kts 131°
2026-05-01 12:31 48.77710 10.82127 14895 ft 389 kts 131°
2026-05-01 12:31 48.75832 10.85069 14277 ft 388 kts 132°
2026-05-01 12:31 48.73958 10.88005 13607 ft 386 kts 132°
2026-05-01 12:32 48.72098 10.90920 13002 ft 382 kts 131°
2026-05-01 12:32 48.68435 10.96649 11791 ft 375 kts 131°
2026-05-01 12:32 48.66644 10.99437 11529 ft 362 kts 131°
2026-05-01 12:33 48.64924 11.02102 11392 ft 346 kts 133°
2026-05-01 12:33 48.63280 11.04648 11279 ft 332 kts 132°
2026-05-01 12:33 48.61699 11.07096 11163 ft 319 kts 131°
2026-05-01 12:33 48.60181 11.09453 11027 ft 308 kts 132°
2026-05-01 12:34 48.58712 11.11734 10908 ft 298 kts 133°
2026-05-01 12:34 48.57162 11.13740 10765 ft 291 kts 142°
2026-05-01 12:34 48.55504 11.15437 10550 ft 285 kts 143°
2026-05-01 12:34 48.53873 11.17098 10496 ft 284 kts 144°
2026-05-01 12:35 48.52235 11.18766 10412 ft 283 kts 143°
2026-05-01 12:35 48.50748 11.20683 10208 ft 280 kts 130°
2026-05-01 12:35 48.49468 11.22902 9811 ft 279 kts 128°
2026-05-01 12:35 48.48211 11.25114 9410 ft 278 kts 129°
2026-05-01 12:36 48.46953 11.27329 9016 ft 277 kts 129°
2026-05-01 12:36 48.45719 11.29495 8639 ft 274 kts 129°
2026-05-01 12:36 48.44475 11.31673 8161 ft 274 kts 129°
2026-05-01 12:36 48.43233 11.33848 7804 ft 273 kts 128°
2026-05-01 12:37 48.42004 11.35993 7496 ft 269 kts 129°
2026-05-01 12:37 48.40782 11.38120 6847 ft 268 kts 129°
2026-05-01 12:37 48.39549 11.40267 6115 ft 267 kts 129°
2026-05-01 12:37 48.38357 11.42337 5511 ft 262 kts 129°
2026-05-01 12:38 48.37191 11.44358 5288 ft 244 kts 129°
2026-05-01 12:38 48.36124 11.46211 5155 ft 223 kts 130°
2026-05-01 12:38 48.35182 11.47845 5061 ft 196 kts 128°
2026-05-01 12:38 48.34539 11.49460 5009 ft 170 kts 110°
2026-05-01 12:39 48.34308 11.51090 4849 ft 152 kts 94°
2026-05-01 12:39 48.34378 11.52598 4654 ft 138 kts 86°
2026-05-01 12:39 48.34488 11.53986 4468 ft 131 kts 84°
2026-05-01 12:39 48.34596 11.55341 4311 ft 129 kts 84°
2026-05-01 12:40 48.34701 11.56683 4134 ft 129 kts 83°
2026-05-01 12:40 48.34805 11.57991 3982 ft 125 kts 84°
2026-05-01 12:40 48.34909 11.59327 3806 ft 128 kts 84°
2026-05-01 12:40 48.35012 11.60617 3629 ft 124 kts 85°
2026-05-01 12:41 48.35115 11.61924 3486 ft 127 kts 84°
2026-05-01 12:41 48.35219 11.63234 3333 ft 127 kts 84°
2026-05-01 12:41 48.35320 11.64534 3152 ft 125 kts 82°
2026-05-01 12:41 48.35421 11.65821 2988 ft 124 kts 83°
2026-05-01 12:42 48.35521 11.67090 2846 ft 120 kts 84°
2026-05-01 12:42 48.35618 11.68328 2645 ft 122 kts 84°
2026-05-01 12:42 48.35717 11.69588 2498 ft 121 kts 83°
2026-05-01 12:42 48.35817 11.70871 2336 ft 125 kts 83°
2026-05-01 12:43 48.35918 11.72160 2149 ft 124 kts 84°
2026-05-01 12:43 48.36019 11.73434 1911 ft 122 kts 85°
2026-05-01 12:43 48.36121 11.74726 1793 ft 129 kts 85°
2026-05-01 12:43 48.36225 11.76083 1630 ft 133 kts 84°
2026-05-01 12:44 48.36330 11.77443 1489 ft 125 kts 85°
2026-05-01 12:44 48.36411 11.78517 1478 ft 79 kts 83°
2026-05-01 12:44 48.36400 11.79434 1484 ft 22 kts 114°
2026-05-01 12:45 48.36332 11.79669 1474 ft 6 kts 113°
2026-05-01 12:45 48.36311 11.79745 1482 ft 10 kts 112°
2026-05-01 12:45 48.36255 11.79796 1479 ft 11 kts 193°
2026-05-01 12:46 48.36232 11.79708 1485 ft 9 kts 264°
2026-05-01 12:46 48.36226 11.79624 1485 ft 7 kts 263°
2026-05-01 12:46 48.36220 11.79554 1478 ft 6 kts 263°
2026-05-01 12:46 48.36213 11.79467 1485 ft 12 kts 263°
2026-05-01 12:47 48.36204 11.79354 1481 ft 10 kts 263°
2026-05-01 12:47 48.36193 11.79201 1475 ft 21 kts 265°
2026-05-01 12:47 48.36177 11.78993 1472 ft 19 kts 263°
2026-05-01 12:47 48.36162 11.78800 1480 ft 18 kts 263°
2026-05-01 12:48 48.36148 11.78623 1480 ft 16 kts 263°
2026-05-01 12:48 48.36134 11.78443 1474 ft 19 kts 263°
2026-05-01 12:48 48.36119 11.78250 1481 ft 18 kts 262°
2026-05-01 12:48 48.36106 11.78074 1473 ft 16 kts 263°
2026-05-01 12:49 48.36094 11.77913 1483 ft 15 kts 263°
2026-05-01 12:49 48.36083 11.77774 1485 ft 14 kts 263°
2026-05-01 12:49 48.36060 11.77661 1481 ft 9 kts 194°
2026-05-01 12:49 48.35999 11.77671 1482 ft 9 kts 173°
2026-05-01 12:50 48.35940 11.77682 1480 ft 9 kts 174°
2026-05-01 12:50 48.36332 11.77470 1485 ft 0 kts 85°